When you browse on this site, cookies collect data to enhance your experience and personalize the content and advertising you see.
Visit our Privacy Policy to learn more. By continuing to use the site, you agree to this use of cookies and data.
  • In Hungary
  • List of Countries
  • For 7 days
  • Water Temperature
  • Weather Map
  • News
  • Weather Widgets
  • user-avatar
    Login

    Hourly Weather Debnik

    Today, 17 September, Tuesday

    Time Temperature Precipitation Wind Pressure Humidity
    00:00 +11°C° 0 mm 3 mps 749 mmHg 90%
    01:00 +11°C° 0 mm 3 mps 749 mmHg 91%
    02:00 +10°C° 0 mm 3 mps 748 mmHg 92%
    03:00 +10°C° 0 mm 3 mps 748 mmHg 92%
    04:00 +9°C° 0 mm 3 mps 748 mmHg 93%
    05:00 +10°C° 0 mm 3 mps 748 mmHg 91%
    06:00 +10°C° 0 mm 3 mps 748 mmHg 89%
    07:00 +10°C° 0 mm 3 mps 748 mmHg 88%
    08:00 +12°C° 0 mm 4 mps 748 mmHg 79%
    09:00 +13°C° 0 mm 5 mps 747 mmHg 70%
    10:00 +15°C° 0 mm 6 mps 747 mmHg 61%
    11:00 +15°C° 0 mm 7 mps 746 mmHg 59%
    12:00 +15°C° 0 mm 7 mps 746 mmHg 57%
    13:00 +15°C° 0 mm 8 mps 745 mmHg 56%
    14:00 +15°C° 0 mm 8 mps 745 mmHg 56%
    15:00 +15°C° 0 mm 8 mps 745 mmHg 56%
    16:00 +13°C° 0 mm 8 mps 744 mmHg 56%
    17:00 +12°C° 0.3 mm 8 mps 744 mmHg 64%
    18:00 +11°C° 0.3 mm 8 mps 745 mmHg 71%
    19:00 +10°C° 0.3 mm 7 mps 745 mmHg 79%
    20:00 +9°C° 0.1 mm 7 mps 745 mmHg 78%
    21:00 +8°C° 0.1 mm 7 mps 746 mmHg 78%
    22:00 +8°C° 0.1 mm 7 mps 746 mmHg 78%
    23:00 +6°C° 0 mm 7 mps 746 mmHg 77%

    Tomorrow, 18 September, Wednesday

    Time Temperature Precipitation Wind Pressure Humidity
    00:00 +6°C° 0 mm 7 mps 747 mmHg 77%
    01:00 +5°C° 0 mm 8 mps 747 mmHg 76%
    02:00 +5°C° 0 mm 8 mps 747 mmHg 76%
    03:00 +5°C° 0 mm 8 mps 748 mmHg 76%
    04:00 +5°C° 0 mm 8 mps 748 mmHg 76%
    05:00 +5°C° 0 mm 8 mps 749 mmHg 75%
    06:00 +6°C° 0 mm 8 mps 749 mmHg 75%
    07:00 +6°C° 0 mm 8 mps 750 mmHg 75%
    08:00 +7°C° 0 mm 8 mps 750 mmHg 70%
    09:00 +10°C° 0 mm 8 mps 751 mmHg 64%
    10:00 +11°C° 0 mm 8 mps 751 mmHg 59%
    11:00 +12°C° 0 mm 8 mps 751 mmHg 56%
    12:00 +14°C° 0 mm 7 mps 751 mmHg 53%
    13:00 +14°C° 0 mm 7 mps 751 mmHg 50%
    14:00 +14°C° 0 mm 7 mps 751 mmHg 51%
    15:00 +13°C° 0 mm 8 mps 752 mmHg 52%
    16:00 +12°C° 0 mm 8 mps 752 mmHg 53%
    17:00 +11°C° 0 mm 7 mps 752 mmHg 56%
    18:00 +10°C° 0 mm 5 mps 752 mmHg 59%
    19:00 +10°C° 0 mm 4 mps 752 mmHg 63%
    20:00 +10°C° 0 mm 4 mps 753 mmHg 61%
    21:00 +10°C° 0 mm 4 mps 753 mmHg 60%
    22:00 +10°C° 0 mm 4 mps 753 mmHg 58%
    23:00 +10°C° 0 mm 4 mps 753 mmHg 60%

    Day after tomorrow, 19 September, Thursday

    Time Temperature Precipitation Wind Pressure Humidity
    00:00 +8°C° 0 mm 4 mps 753 mmHg 62%
    01:00 +9°C° 0 mm 3 mps 753 mmHg 64%
    02:00 +7°C° 0 mm 4 mps 753 mmHg 68%
    03:00 +7°C° 0 mm 4 mps 753 mmHg 72%
    04:00 +6°C° 0 mm 4 mps 753 mmHg 75%
    05:00 +6°C° 0 mm 4 mps 753 mmHg 77%
    06:00 +6°C° 0 mm 5 mps 753 mmHg 79%
    07:00 +5°C° 0 mm 6 mps 754 mmHg 80%
    08:00 +8°C° 0 mm 6 mps 754 mmHg 75%
    09:00 +9°C° 0 mm 5 mps 754 mmHg 70%
    10:00 +12°C° 0 mm 5 mps 754 mmHg 65%
    11:00 +13°C° 0.2 mm 6 mps 754 mmHg 61%
    12:00 +13°C° 0.2 mm 6 mps 754 mmHg 58%
    13:00 +14°C° 0.2 mm 6 mps 754 mmHg 55%
    14:00 +14°C° 0.2 mm 6 mps 754 mmHg 53%
    15:00 +14°C° 0.2 mm 6 mps 754 mmHg 52%
    16:00 +14°C° 0.2 mm 5 mps 754 mmHg 51%
    17:00 +13°C° 0 mm 5 mps 755 mmHg 56%
    18:00 +11°C° 0 mm 4 mps 755 mmHg 61%
    19:00 +10°C° 0 mm 3 mps 756 mmHg 65%
    20:00 +9°C° 0 mm 3 mps 756 mmHg 66%
    21:00 +9°C° 0 mm 3 mps 756 mmHg 68%
    22:00 +8°C° 0 mm 3 mps 757 mmHg 69%
    23:00 +8°C° 0 mm 2 mps 757 mmHg 71%

    20 September, Friday

    Time Temperature Precipitation Wind Pressure Humidity
    00:00 +7°C° 0 mm 2 mps 757 mmHg 73%
    01:00 +7°C° 0 mm 2 mps 757 mmHg 75%
    02:00 +6°C° 0 mm 2 mps 757 mmHg 77%
    03:00 +6°C° 0 mm 2 mps 757 mmHg 80%
    04:00 +5°C° 0 mm 3 mps 757 mmHg 82%
    05:00 +5°C° 0 mm 3 mps 757 mmHg 83%
    06:00 +7°C° 0 mm 3 mps 757 mmHg 83%
    07:00 +6°C° 0 mm 4 mps 757 mmHg 83%
    08:00 +8°C° 0 mm 4 mps 757 mmHg 77%
    09:00 +11°C° 0 mm 4 mps 757 mmHg 70%
    10:00 +12°C° 0 mm 4 mps 758 mmHg 64%
    11:00 +13°C° 0.1 mm 4 mps 757 mmHg 59%
    12:00 +14°C° 0.1 mm 4 mps 757 mmHg 54%
    13:00 +15°C° 0.1 mm 4 mps 757 mmHg 50%
    14:00 +15°C° 0 mm 4 mps 757 mmHg 49%
    15:00 +15°C° 0 mm 4 mps 757 mmHg 48%
    16:00 +14°C° 0 mm 3 mps 756 mmHg 47%
    17:00 +13°C° 0 mm 3 mps 757 mmHg 52%
    18:00 +13°C° 0 mm 2 mps 757 mmHg 58%
    19:00 +11°C° 0 mm 1 mps 757 mmHg 64%
    20:00 +11°C° 0 mm 1 mps 757 mmHg 67%
    21:00 +10°C° 0 mm 1 mps 758 mmHg 70%
    22:00 +10°C° 0 mm 1 mps 758 mmHg 73%
    23:00 +9°C° 0 mm 1 mps 758 mmHg 76%

    21 September, Saturday

    Time Temperature Precipitation Wind Pressure Humidity
    00:00 +9°C° 0 mm 1 mps 758 mmHg 79%
    01:00 +9°C° 0 mm 1 mps 758 mmHg 82%
    02:00 +8°C° 0 mm 1 mps 758 mmHg 83%
    03:00 +8°C° 0 mm 1 mps 758 mmHg 85%
    04:00 +8°C° 0 mm 1 mps 758 mmHg 87%
    05:00 +8°C° 0 mm 1 mps 758 mmHg 84%
    06:00 +9°C° 0 mm 1 mps 758 mmHg 82%
    07:00 +10°C° 0 mm 1 mps 758 mmHg 79%
    08:00 +12°C° 0 mm 1 mps 758 mmHg 72%
    09:00 +13°C° 0 mm 1 mps 758 mmHg 64%
    10:00 +15°C° 0 mm 2 mps 758 mmHg 56%
    11:00 +16°C° 0 mm 2 mps 758 mmHg 52%
    12:00 +17°C° 0 mm 2 mps 758 mmHg 48%
    13:00 +18°C° 0 mm 2 mps 757 mmHg 44%
    14:00 +18°C° 0 mm 2 mps 757 mmHg 45%
    15:00 +18°C° 0 mm 2 mps 757 mmHg 45%
    16:00 +18°C° 0 mm 2 mps 756 mmHg 45%
    17:00 +17°C° 0 mm 2 mps 756 mmHg 49%
    18:00 +15°C° 0 mm 2 mps 756 mmHg 54%
    19:00 +13°C° 0 mm 2 mps 756 mmHg 58%
    20:00 +13°C° 0 mm 2 mps 756 mmHg 60%
    21:00 +11°C° 0 mm 3 mps 757 mmHg 61%
    22:00 +11°C° 0 mm 3 mps 757 mmHg 62%
    23:00 +11°C° 0 mm 3 mps 757 mmHg 63%

    22 September, Sunday

    Time Temperature Precipitation Wind Pressure Humidity
    00:00 +10°C° 0 mm 3 mps 756 mmHg 65%
    01:00 +10°C° 0 mm 3 mps 756 mmHg 67%
    02:00 +10°C° 0 mm 3 mps 756 mmHg 67%
    03:00 +9°C° 0 mm 3 mps 756 mmHg 68%
    04:00 +9°C° 0 mm 3 mps 756 mmHg 69%
    05:00 +10°C° 0 mm 3 mps 756 mmHg 67%
    06:00 +10°C° 0 mm 4 mps 756 mmHg 64%
    07:00 +11°C° 0 mm 4 mps 756 mmHg 61%
    08:00 +13°C° 0 mm 4 mps 756 mmHg 55%
    09:00 +15°C° 0 mm 5 mps 756 mmHg 48%
    10:00 +17°C° 0 mm 5 mps 756 mmHg 42%
    11:00 +19°C° 0 mm 6 mps 756 mmHg 40%
    12:00 +20°C° 0 mm 6 mps 755 mmHg 38%
    13:00 +22°C° 0 mm 6 mps 755 mmHg 36%
    14:00 +21°C° 0 mm 6 mps 755 mmHg 38%
    15:00 +21°C° 0 mm 5 mps 754 mmHg 40%
    16:00 +21°C° 0 mm 5 mps 754 mmHg 42%
    17:00 +19°C° 0 mm 5 mps 754 mmHg 46%
    18:00 +16°C° 0 mm 5 mps 754 mmHg 49%
    19:00 +15°C° 0 mm 4 mps 754 mmHg 53%
    20:00 +14°C° 0 mm 4 mps 754 mmHg 53%
    21:00 +14°C° 0 mm 4 mps 754 mmHg 52%
    22:00 +13°C° 0 mm 4 mps 754 mmHg 52%
    23:00 +13°C° 0 mm 4 mps 754 mmHg 51%
    Show more